Regional Weather Roundup
Issued by NWS Sterling, VA

Home | Current Version | Previous Version | Text Only | Print | Product List | Glossary Off
Versions: 1 2 3 4 5 6 7 8 9 10 11 12 13 14 15 16 17 18 19 20 21 22 23 24 25 26 27 28 29 30 31 32 33 34 35 36 37 38 39 40 41 42 43 44 45 46 47

000
ASUS41 KLWX 270010
RWRLWX

REGIONAL WEATHER ROUNDUP
NATIONAL WEATHER SERVICE BALTIMORE MD/WASHINGTON DC
700 PM EST THU FEB 26 2015

Note: "FAIR" indicates few or no clouds below 12,000 feet
with no significant weather and/or obstructions to visibility.
 TC=TEMPERATURE CELSIUS

 * =Non NWS site. Station does not report precipitation (e.g. rain,
    snow, etc.), thunder, or fog.

DCZ001-MDZ009-015-VAZ040>042-051-053>054-270100-
WASHINGTON METRO

CITY           SKY/WX    TMP DP  RH WIND       PRES   REMARKS
WASHINGTON NAT MOCLDY    36  22  56 NE3       30.07R
DULLES         MOCLDY    30  21  69 CALM      30.05R
ANDREWS AFB    MOCLDY    31  23  72 E8        30.04R WCI  24
FT BELVOIR     MOCLDY    34  23  65 CALM      30.07R
QUANTICO       MOCLDY    33  25  72 NW3       30.08R
COLLEGE PARK*  CLOUDY    32  25  74 CALM      30.05R
LEESBURG*      PTCLDY    32  27  80 W5        30.06R
MANASSAS*      CLEAR     30  27  86 CALM      30.05R
GAITHERSBURG*  PTCLDY    30  18  59 CALM      30.07R

$$

MDZ006>007-011-014-270100-
BALTIMORE METRO

CITY           SKY/WX    TMP DP  RH WIND       PRES   REMARKS
BWI AIRPORT    MOCLDY    32  19  58 CALM      30.05R
MD SCIENCE CTR   N/A     32  20  61 MISG      30.05R
MARTIN STATE   MOCLDY    32  23  69 N5        30.08R
ANNAPOLIS      PTCLDY    30  21  69 CALM      30.07R
FORT MEADE*    MOCLDY    32  23  69 CALM      30.07R

$$

MDZ012-015-019>023-270100-
MARYLAND EASTERN SHORE

CITY           SKY/WX    TMP DP  RH WIND       PRES   REMARKS
OCEAN CITY     CLOUDY    29  22  75 NE6       30.06R
SALISBURY      CLOUDY    33  20  58 N3        30.06R
BAY BRIDGE AP*   N/A     30  21  69 E3        30.07R
CAMBRIDGE*     PTCLDY    32  25  74 CALM      30.06R
EASTON*        PTCLDY    34  23  64 CALM      30.10R

$$

MDZ017>025-270100-
SOUTHERN MARYLAND

CITY           SKY/WX    TMP DP  RH WIND       PRES   REMARKS
PATUXENT RIVER PTCLDY    28  20  71 CALM      30.06R
ST INIGOES     MOCLDY    30  20  66 NE3       30.06R
LEONARDTOWN*   CLOUDY    30  23  74 CALM      30.07R

$$

MDZ003>005-270100-
NORTH CENTRAL MARYLAND

CITY           SKY/WX    TMP DP  RH WIND       PRES   REMARKS
FREDERICK*     CLEAR     30  18  59 CALM      30.09R
HAGERSTOWN APT CLOUDY    31  20  63 NE3       30.03R
WESTMINSTER*   MOCLDY    28  19  69 CALM      30.02R

$$

MDZ501>502-270100-
WESTERN MARYLAND

CITY           SKY/WX    TMP DP  RH WIND       PRES   REMARKS
OAKLAND*       CLOUDY    21 N/A N/A NW6       29.91R
CUMBERLAND*    MOCLDY    34  25  69 CALM      30.05R

$$

VAZ025>031-270100-
SHENANDOAH VALLEY

CITY           SKY/WX    TMP DP  RH WIND       PRES   REMARKS
WINCHESTER*    CLOUDY    32  21  64 CALM      30.03R
FRONT ROYAL*   FAIR      32  25  74 CALM      30.02R
LURAY*         CLOUDY    34  28  80 CALM      30.01R
NEW MARKET*    CLOUDY    32  27  82 CALM      30.00R
STAUNTON*      CLOUDY    34  24  66 CALM      30.02R
WAYNESBORO*    CLOUDY    32  25  74 CALM      29.98R

$$

WVZ021-048>050-054>055-270100-
EASTERN WEST VIRGINIA PANHANDLE

CITY           SKY/WX    TMP DP  RH WIND       PRES   REMARKS
MARTINSBURG    CLOUDY    32  21  64 S3        30.03R
PETERSBURG*    NOT AVBL

$$

VAZ036>039-050-270100-
CENTRAL FOOTHILLS

CITY           SKY/WX    TMP DP  RH WIND       PRES   REMARKS
CHARLOTTESVILL CLOUDY    35  24  64 CALM      30.03R
CULPEPER*      CLOUDY    32  28  86 CALM      30.06R
ORANGE*        CLOUDY    32  28  86 CALM      30.06R
GORDONSVILLE*  MOCLDY    31  26  80 CALM      30.05R
WARRENTON*     MOCLDY    31  30  94 CALM      30.05R

$$

VAZ055>057-270100-
NORTH AND CENTRAL PIEDMONT

CITY           SKY/WX    TMP DP  RH WIND       PRES   REMARKS
FREDERICKSBRG* MOCLDY    35  28  75 CALM      30.06R
STAFFORD*      MOCLDY    32  24  71 CALM      30.09R

$$

NCZ024-NYZ072-PAZ021-071-VAZ022-071-270100-
OTHER REGIONAL OBSERVATIONS

CITY           SKY/WX    TMP DP  RH WIND       PRES   REMARKS
NEW YORK CITY  CLOUDY    26  11  52 VRB5      30.06R
PHILADELPHIA   MOCLDY    29  16  58 N7        30.07R
PITTSBURGH     FLURRIES  16   9  74 NW13      30.09R WCI   2
ROANOKE        CLOUDY    36  28  73 E5        30.03R
RICHMOND       CLOUDY    34  27  75 CALM      30.06R
RALEIGH        MOCLDY    34  28  79 CALM      30.07R

$$

ANZ530>537-270100-
MARINE OBSERVATIONS

STATION/POSITION TIME  TEMP    WIND        PRES
                       AIR SEA DIR/SP/G
                 (UTC) (F)     (DEG/KT/KT) (MB)
THOMAS PT LIGHT  0000   31 31   70/  4/  4 1019.4R
BALT KEY BRIDGE  2300   33      50/  5/  5 1016.6R
COVE POINT       2300   30      50/  8/ 10 1016.9R
LEWISETTA        2300   29 32     CALM     1017.2R
SOLOMONS ISLAND  2300      33                N/A

$$




USA.gov is the U.S. government's official web portal to all federal, state and local government web resources and services.